LNPIL EGPH-EGJB

Flight info

Callsign LNPIL
Flight time N/A
Altitude 23000
Route TLA N864 WAL N862 SIDHO N40 KLAKI L149 BIGNO
Aircraft PC12/L-VGDW/C

Departure

Time N/A
Airport Edinburgh Airport (EGPH)

Arrival

Time 2026-04-30 20:05
Airport Guernsey Airport (EGJB)
Time Latitude Longitude Altitude Speed Heading
2026-04-30 19:24 51.65836 -3.05539 23280 ft 257 kts 184°
2026-04-30 19:25 51.60516 -3.06643 23253 ft 257 kts 184°
2026-04-30 19:26 51.56968 -3.07378 23234 ft 257 kts 184°
2026-04-30 19:26 51.53420 -3.08112 23147 ft 257 kts 184°
2026-04-30 19:26 51.51645 -3.08478 23152 ft 258 kts 184°
2026-04-30 19:27 51.48082 -3.09214 23151 ft 258 kts 184°
2026-04-30 19:27 51.44520 -3.09947 23152 ft 258 kts 184°
2026-04-30 19:28 51.42739 -3.10313 23150 ft 258 kts 184°
2026-04-30 19:28 51.39173 -3.11046 23149 ft 258 kts 184°
2026-04-30 19:29 51.35613 -3.11776 23149 ft 258 kts 184°
2026-04-30 19:29 51.33850 -3.12138 23149 ft 258 kts 184°
2026-04-30 19:30 51.28480 -3.13236 23134 ft 259 kts 184°
2026-04-30 19:30 51.24923 -3.13963 23134 ft 260 kts 184°
2026-04-30 19:31 51.21333 -3.14695 23141 ft 260 kts 184°
2026-04-30 19:31 51.19538 -3.15060 23141 ft 260 kts 184°
2026-04-30 19:31 51.15943 -3.15791 23141 ft 260 kts 184°
2026-04-30 19:32 51.14146 -3.16156 23139 ft 260 kts 184°
2026-04-30 19:32 51.12349 -3.16521 23140 ft 260 kts 184°
2026-04-30 19:32 51.10550 -3.16886 23136 ft 261 kts 185°
2026-04-30 19:32 51.08753 -3.17250 23140 ft 261 kts 184°
2026-04-30 19:33 51.06950 -3.17616 23137 ft 261 kts 184°
2026-04-30 19:33 51.05147 -3.17980 23136 ft 261 kts 184°
2026-04-30 19:33 51.03347 -3.18344 23135 ft 261 kts 184°
2026-04-30 19:33 51.01545 -3.18709 23134 ft 261 kts 184°
2026-04-30 19:34 50.99745 -3.19072 23131 ft 260 kts 184°
2026-04-30 19:34 50.97952 -3.19433 23130 ft 260 kts 184°
2026-04-30 19:34 50.94352 -3.20159 23129 ft 260 kts 184°
2026-04-30 19:35 50.92578 -3.20516 23127 ft 260 kts 184°
2026-04-30 19:35 50.90783 -3.20877 23128 ft 260 kts 184°
2026-04-30 19:35 50.88985 -3.21238 23126 ft 260 kts 184°
2026-04-30 19:35 50.87190 -3.21599 23126 ft 260 kts 184°
2026-04-30 19:36 50.85392 -3.21959 23126 ft 260 kts 184°
2026-04-30 19:36 50.83593 -3.22320 23125 ft 260 kts 184°
2026-04-30 19:36 50.79982 -3.23043 23124 ft 262 kts 185°
2026-04-30 19:37 50.78172 -3.23406 23123 ft 262 kts 185°
2026-04-30 19:37 50.76355 -3.23665 23120 ft 261 kts 178°
2026-04-30 19:37 50.74553 -3.23411 23120 ft 260 kts 169°
2026-04-30 19:37 50.72770 -3.22902 23121 ft 260 kts 169°
2026-04-30 19:38 50.71008 -3.22422 23123 ft 261 kts 169°
2026-04-30 19:38 50.69223 -3.21937 23124 ft 261 kts 169°
2026-04-30 19:38 50.67432 -3.21445 23124 ft 261 kts 169°
2026-04-30 19:38 50.65644 -3.20952 23124 ft 261 kts 169°
2026-04-30 19:39 50.63856 -3.20462 23121 ft 260 kts 169°
2026-04-30 19:39 50.62070 -3.19972 23126 ft 260 kts 169°
2026-04-30 19:39 50.60286 -3.19483 23134 ft 260 kts 170°
2026-04-30 19:39 50.58499 -3.18993 23134 ft 261 kts 169°
2026-04-30 19:40 50.56711 -3.18505 23133 ft 261 kts 169°
2026-04-30 19:40 50.54922 -3.18015 23131 ft 261 kts 169°
2026-04-30 19:40 50.53133 -3.17527 23131 ft 261 kts 169°
2026-04-30 19:40 50.51342 -3.17038 23131 ft 261 kts 169°
2026-04-30 19:41 50.49555 -3.16550 23130 ft 261 kts 169°
2026-04-30 19:41 50.47764 -3.16062 23131 ft 261 kts 169°
2026-04-30 19:41 50.45975 -3.15575 23125 ft 261 kts 169°
2026-04-30 19:41 50.44187 -3.15088 23125 ft 261 kts 169°
2026-04-30 19:42 50.42390 -3.14600 23129 ft 263 kts 169°
2026-04-30 19:42 50.40585 -3.14109 23131 ft 263 kts 169°
2026-04-30 19:42 50.38806 -3.13626 23131 ft 263 kts 169°
2026-04-30 19:42 50.37037 -3.12919 23122 ft 263 kts 160°
2026-04-30 19:43 50.35377 -3.11723 23124 ft 263 kts 152°
2026-04-30 19:43 50.33766 -3.10360 23125 ft 263 kts 153°
2026-04-30 19:43 50.32146 -3.09020 23126 ft 263 kts 153°
2026-04-30 19:44 50.28908 -3.06336 23124 ft 263 kts 153°
2026-04-30 19:44 50.27290 -3.04992 23124 ft 264 kts 153°
2026-04-30 19:44 50.25669 -3.03648 23124 ft 264 kts 153°
2026-04-30 19:44 50.24049 -3.02306 23124 ft 264 kts 153°
2026-04-30 19:45 50.22429 -3.00965 23122 ft 264 kts 153°
2026-04-30 19:45 50.20807 -2.99622 23122 ft 264 kts 153°
2026-04-30 19:45 50.19187 -2.98284 23122 ft 264 kts 153°
2026-04-30 19:45 50.17567 -2.96945 23122 ft 264 kts 153°
2026-04-30 19:46 50.15946 -2.95608 23121 ft 264 kts 153°
2026-04-30 19:46 50.14322 -2.94268 23107 ft 265 kts 153°
2026-04-30 19:46 50.12675 -2.92911 22842 ft 270 kts 153°
2026-04-30 19:46 50.11026 -2.91553 22492 ft 266 kts 153°
2026-04-30 19:47 50.09394 -2.90210 22141 ft 264 kts 153°
2026-04-30 19:47 50.08319 -2.89326 21911 ft 264 kts 153°
2026-04-30 19:47 50.06163 -2.87555 21447 ft 264 kts 153°
2026-04-30 19:47 50.04541 -2.86223 21091 ft 264 kts 153°
2026-04-30 19:48 50.02916 -2.84891 20744 ft 264 kts 153°
2026-04-30 19:48 50.01283 -2.83552 20391 ft 266 kts 153°
2026-04-30 19:48 49.99534 -2.82696 20032 ft 267 kts 175°
2026-04-30 19:48 49.97668 -2.82772 19688 ft 269 kts 183°
2026-04-30 19:49 49.95804 -2.83063 19350 ft 270 kts 185°
2026-04-30 19:49 49.92061 -2.83740 18672 ft 272 kts 185°
2026-04-30 19:49 49.90179 -2.84089 18325 ft 271 kts 185°
2026-04-30 19:50 49.88311 -2.84439 17968 ft 269 kts 185°
2026-04-30 19:50 49.86459 -2.84790 17636 ft 268 kts 185°
2026-04-30 19:50 49.84616 -2.85140 17308 ft 267 kts 185°
2026-04-30 19:50 49.82782 -2.85491 16983 ft 265 kts 185°
2026-04-30 19:51 49.80951 -2.85843 16660 ft 264 kts 185°
2026-04-30 19:51 49.79132 -2.86192 16337 ft 263 kts 185°
2026-04-30 19:51 49.77316 -2.86543 15945 ft 264 kts 185°
2026-04-30 19:51 49.75504 -2.86895 15674 ft 260 kts 185°
2026-04-30 19:52 49.73715 -2.87244 15364 ft 259 kts 185°
2026-04-30 19:52 49.71931 -2.87596 15058 ft 258 kts 185°
2026-04-30 19:52 49.70155 -2.87948 14737 ft 258 kts 185°
2026-04-30 19:52 49.68379 -2.88297 14417 ft 257 kts 185°
2026-04-30 19:53 49.66630 -2.88640 14108 ft 256 kts 185°
2026-04-30 19:53 49.64854 -2.88990 13719 ft 256 kts 185°
2026-04-30 19:53 49.63079 -2.89341 13168 ft 259 kts 185°
2026-04-30 19:53 49.61293 -2.89695 12578 ft 259 kts 185°
2026-04-30 19:54 49.59511 -2.90050 11997 ft 257 kts 185°
2026-04-30 19:54 49.57747 -2.90403 11427 ft 254 kts 185°
2026-04-30 19:54 49.56006 -2.90794 10848 ft 252 kts 190°
2026-04-30 19:54 49.54373 -2.91785 10272 ft 253 kts 202°
2026-04-30 19:55 49.52815 -2.93048 9674 ft 252 kts 205°
2026-04-30 19:55 49.51287 -2.94334 9053 ft 249 kts 205°
2026-04-30 19:55 49.49773 -2.95608 8437 ft 247 kts 205°
2026-04-30 19:55 49.48269 -2.96862 7847 ft 245 kts 205°
2026-04-30 19:56 49.46780 -2.98099 7255 ft 243 kts 205°
2026-04-30 19:56 49.45286 -2.99257 6675 ft 238 kts 197°
2026-04-30 19:56 49.43670 -2.99662 6070 ft 234 kts 182°
2026-04-30 19:56 49.42050 -2.99768 5470 ft 232 kts 180°
2026-04-30 19:57 49.40441 -2.99830 4949 ft 229 kts 180°
2026-04-30 19:57 49.38860 -2.99832 4435 ft 226 kts 173°
2026-04-30 19:57 49.37485 -2.98756 3906 ft 228 kts 134°
2026-04-30 19:57 49.36917 -2.96528 3576 ft 231 kts 95°
2026-04-30 19:58 49.37135 -2.94948 3377 ft 227 kts 68°
2026-04-30 19:58 49.38042 -2.93069 3134 ft 212 kts 51°
2026-04-30 19:58 49.39000 -2.91467 2897 ft 194 kts 50°
2026-04-30 19:58 49.40152 -2.89585 2566 ft 172 kts 50°
2026-04-30 19:59 49.40697 -2.88694 2398 ft 167 kts 50°
2026-04-30 19:59 49.41487 -2.87405 2151 ft 165 kts 50°
2026-04-30 19:59 49.42737 -2.84002 2041 ft 157 kts 79°
2026-04-30 20:00 49.42833 -2.82898 2042 ft 153 kts 91°
2026-04-30 20:00 49.42899 -2.81246 2049 ft 157 kts 91°
2026-04-30 20:00 49.42951 -2.79582 2054 ft 154 kts 92°
2026-04-30 20:00 49.42998 -2.77990 2054 ft 143 kts 92°
2026-04-30 20:01 49.43082 -2.75263 2039 ft 112 kts 94°
2026-04-30 20:01 49.43114 -2.73987 1952 ft 129 kts 92°
2026-04-30 20:01 49.43152 -2.72748 1778 ft 105 kts 93°
2026-04-30 20:02 49.43213 -2.70526 1506 ft 103 kts 93°
2026-04-30 20:02 49.43245 -2.69437 1376 ft 105 kts 93°
2026-04-30 20:03 49.43295 -2.67340 1164 ft 94 kts 94°
2026-04-30 20:03 49.43322 -2.66337 1032 ft 94 kts 89°
2026-04-30 20:03 49.43370 -2.65299 867 ft 95 kts 92°
2026-04-30 20:03 49.43383 -2.64324 727 ft 92 kts 90°
2026-04-30 20:04 49.43410 -2.63372 612 ft 89 kts 90°
2026-04-30 20:04 49.43432 -2.62449 492 ft 86 kts 89°
2026-04-30 20:04 49.43459 -2.61535 360 ft 84 kts 91°
2026-04-30 20:05 49.43503 -2.60030 316 ft 42 kts 86°
2026-04-30 20:05 49.43489 -2.59864 319 ft 13 kts 163°
2026-04-30 20:05 49.43398 -2.59858 320 ft 6 kts 176°
2026-04-30 20:06 49.43357 -2.59851 320 ft 4 kts 158°
2026-04-30 20:06 49.43352 -2.59767 321 ft 18 kts 82°
2026-04-30 20:06 49.43354 -2.59628 323 ft 3 kts 163°
2026-04-30 20:06 49.43282 -2.59622 323 ft 0 kts 176°